This is the latest recevied weather packets stored in our database for station/object N9BID. If no packets are shown the sender has not sent any weather packets the latest 10 day(s).
| Time | Temp. | Humidity | Pressure | Rain* | Wind** | Luminosity | Snow |
|---|---|---|---|---|---|---|---|
| 1777509029 | 7.78° C | 59% | 1007.8 hPa | 0 mm | - | 16 W/m² | - |
| 1777508727 | 7.78° C | 55% | 1007.4 hPa | 0 mm | - | 21 W/m² | - |
| 1777508424 | 7.78° C | 58% | 1007.7 hPa | 0 mm | - | 17 W/m² | - |
| 1777508120 | 7.78° C | 58% | 1007.8 hPa | 0 mm | - | 19 W/m² | - |
| 1777507818 | 7.78° C | 60% | 1007.7 hPa | 0 mm | - | 36 W/m² | - |
| 1777507515 | 7.78° C | 56% | 1007.5 hPa | 0 mm | - | 25 W/m² | - |
| 1777507212 | 7.78° C | 54% | 1007.7 hPa | 0 mm | - | 26 W/m² | - |
| 1777506909 | 7.78° C | 58% | 1007.5 hPa | 0 mm | - | 31 W/m² | - |
| 1777506606 | 8.33° C | 58% | 1007.6 hPa | 0 mm | - | 40 W/m² | - |
| 1777506301 | 8.89° C | 51% | 1007.4 hPa | 0 mm | - | 51 W/m² | - |
| 1777505998 | 8.89° C | 51% | 1007.4 hPa | 0 mm | - | 125 W/m² | - |
| 1777505693 | 8.89° C | 53% | 1007.5 hPa | 0 mm | - | 85 W/m² | - |
| 1777505391 | 8.89° C | 55% | 1007.4 hPa | 0 mm | - | 90 W/m² | - |
| 1777505087 | 8.89° C | 51% | 1007.6 hPa | 0 mm | - | 89 W/m² | - |
| 1777504784 | 8.89° C | 53% | 1007.2 hPa | 0 mm | - | 102 W/m² | - |
| 1777504481 | 8.89° C | 54% | 1007.4 hPa | 0 mm | - | 87 W/m² | - |
| 1777504177 | 9.44° C | 52% | 1007.6 hPa | 0 mm | - | 99 W/m² | - |
| 1777503873 | 9.44° C | 50% | 1007.3 hPa | 0 mm | - | 98 W/m² | - |
| 1777503569 | 8.89° C | 55% | 1007.4 hPa | 0 mm | - | 110 W/m² | - |
| 1777503267 | 8.89° C | 55% | 1007.3 hPa | 0 mm | - | 101 W/m² | - |
| 1777502963 | 8.33° C | 55% | 1007.1 hPa | 0 mm | - | 76 W/m² | - |
| 1777502660 | 8.33° C | 51% | 1007.3 hPa | 0 mm | - | 61 W/m² | - |
| 1777502357 | 8.89° C | 56% | 1007.2 hPa | 0 mm | - | 78 W/m² | - |
| 1777502054 | 8.89° C | 56% | 1007.3 hPa | 0 mm | - | 74 W/m² | - |
| 1777501750 | 8.89° C | 57% | 1007.3 hPa | 0 mm | - | 90 W/m² | - |
* Rain latest hour (hover to see other rain measurements)
** Current wind speed in m/s (hover to see current wind gust speed)